Tracking 19832 objects as of 25-Aug-2019
HD Live streaming from Space Station
objects crossing your sky now

THORAD DELTA 1 DEB

Track THORAD DELTA 1 DEB now!
10-day predictions


NORAD ID: 8403
Int'l Code: 1974-089CF
Perigee: 1,442.3 km
Apogee: 1,528.7 km
Inclination: 101.3 °
Period: 115.5 minutes
Semi major axis: 7856 km
RCS: 0.0456 m2 (small)
Launch date: November 15, 1974
Source: United States (US)
Launch site: AIR FORCE WESTERN TEST RANGE (AFWTR)

Note: This is SATELLITE DEBRIS
aabbcc
Your satellite tracking list
Your tracking list is empty




NASA's NSSDC Master Catalog

Two Line Element Set (TLE):
1  8403U 74089CF  19236.44672329 +.00000010 +00000-0 +34804-3 0  9994
2  8403 101.3118 056.7076 0054991 162.0186 228.5732 12.46702246039325
Source of the keplerian elements: AFSPC